STAR ONE C2

Last updated on Sun Nov 16 2025 00:03:40 GMT+0000 (Coordinated Universal Time)

1 32768U 08018B 25319.39889057 -.00000270 00000+0 00000+0 0 9990 2 32768 0.6940 84.0883 0002498 161.9946 247.2846 1.00271269 64514
UTC large
Height (km)
Speed (km/s)
/
Latitude / Longitude
Inclination (degrees)
Orbital Period (minutes)
Azimuth
Elevation
Range (km)
Doppler Factor

Next 0 passes for location: London (51.5072 / 0.1276)

Sorry there are no passes over London.